Voltar ao catálogo

STARLINK-34597

AtivoComunicaçõesVLEO
NORAD 64738·PAYLOAD·🇺🇸 United States

Lançado Jul 2, 2025 de Cape Canaveral Space Force Station

Loading…

Próximas Passagens (próximas 24 horas)

TLE

AtualizadoSource: CelesTrak SupGP

Época: Sep 15, 2026, 02:41 UTC

1 64738C 25144Q   26258.11229167  .00035155  00000+0  10384-2 0  2580
2 64738  53.1604  18.6585 0001103  79.1311 115.0254 15.34380255    14

Acompanhe STARLINK-34597 em tempo real com AllMySat

Download on the App Store